Regional Weather Roundup
Issued by NWS

Home | Current Version | Previous Version | Text Only | Print | Product List | Glossary On
Versions: 1 2 3 4 5 6 7 8 9 10 11 12 13 14 15 16 17 18 19 20 21 22 23 24 25 26 27 28 29 30 31 32 33 34 35 36 37 38 39 40 41 42 43 44 45 46 47 48 49 50
000
ASUS43 KTOP 270508
RWRKS

WEATHER ROUNDUP FOR KANSAS
NATIONAL WEATHER SERVICE GOODLAND KS
1200 AM CDT THU APR 27 2017

NOTE:  "FAIR" INDICATES FEW OR NO CLOUDS BELOW 12,000 FEET WITH NO
SIGNIFICANT WEATHER AND/OR OBSTRUCTIONS TO VISIBILITY.

KSZ001>006-013>018-027>032-041>047-270600-
NORTHWEST KANSAS

CITY           SKY/WX    TMP DP  RH WIND       PRES   REMARKS
GOODLAND       CLOUDY    44  30  57 S9        29.72S
HAYS           CLEAR     38  32  79 CALM      29.75R
HILL CITY      CLEAR     36  31  82 E7        29.74S
RUSSELL        CLEAR     38  32  79 NE7       29.73S
$$

KSZ061>065-074>080-084>089-270600-
SOUTHWEST KANSAS

CITY           SKY/WX    TMP DP  RH WIND       PRES   REMARKS
DODGE CITY     CLEAR     40  33  76 S7        29.75R
ELKHART          N/A     49  34  56 SW5         N/A
GARDEN CITY    CLEAR     44  30  57 SE5       29.73F
GREAT BEND     CLEAR     38  34  85 CALM      29.74S
LIBERAL        PTCLDY    44  36  73 CALM      29.75S
PRATT          PTCLDY    42  33  70 CALM      29.74S
$$

KSZ066>073-081>083-090>101-270600-
SOUTHEAST KANSAS

CITY           SKY/WX    TMP DP  RH WIND       PRES   REMARKS
CHANUTE        CLEAR     43  38  82 W5        29.72R
COFFEYVILLE    CLOUDY    51  42  71 NW8       29.73R
HUTCHINSON     CLEAR     38  35  89 CALM      29.73S
MEDICINE LODGE   N/A     43  36  76 CALM      29.74S
NEWTON         CLEAR     42  38  85 W6        29.73
PARSONS        PTCLDY    46  43  89 CALM      29.73R
WICHITA INTL   CLEAR     39  37  92 W3        29.73S
WICHITA JABRA  CLEAR     41  36  82 W6        29.73S
WICHITA MCCONL CLEAR     45  37  71 NW3       29.73S
WINFIELD       CLEAR     42  38  85 CALM      29.74F
$$

KSZ007>012-019>026-033>040-048>060-102>105-270600-
NORTHEAST KANSAS

CITY           SKY/WX    TMP DP  RH WIND       PRES   REMARKS
CONCORDIA      CLEAR     37  31  78 NW8       29.73F
EMPORIA        CLEAR     43  37  79 W3        29.71R
LAWRENCE       CLOUDY    45  36  70 NW10      29.69F
MANHATTAN      CLEAR     43  34  70 CALM      29.72R
MARYSVILLE     CLOUDY    43  32  65 NW10G17   29.71S
OLATHE IND     CLOUDY    44  35  70 NW16G22   29.68S
OLATHE EXE     CLOUDY    43  36  76 NW14      29.66F
SALINA         CLEAR     39  33  79 NW6       29.74S
TOPEKA BILLARD CLOUDY    46  37  71 NW8       29.70S
TOPEKA FORBES  CLOUDY    47  35  63 NW10      29.69S
$$




USA.gov is the U.S. government's official web portal to all federal, state and local government web resources and services.